Location: Codevigo
(45.2686°N, 12.1011°E)
Time: 23:27:56
(UTC+00:00)

Daily predictions for brighter satellites

Satellite Brightness Start Highest point End
(mag) Time Altitude Azimuth Time Altitude Azimuth Time Altitude Azimuth
CZ-4B R/B 4.3 17:11:53 10° S 17:17:22 53° W 17:22:52 10° NNW
Cosmos 1656 4.1 17:13:43 10° SW 17:19:14 66° WNW 17:24:42 10° NNE
Timation 1 Rocket 4.4 17:13:21 10° NNW 17:19:20 68° ENE 17:25:16 10° SE
YAOGAN 1 3.1 17:15:49 10° SE 17:19:48 37° ENE 17:23:48 10° N
COSMO-SKYMED 1 2.5 17:15:48 10° NNE 17:20:10 73° ESE 17:24:29 10° S
Okean-O 3.2 17:16:41 10° SE 17:20:45 37° ENE 17:24:51 10° N
Helios 1A Rocket 4.0 17:18:04 10° ESE 17:21:21 24° ENE 17:24:38 10° NNE
Cosmos 1500 Rocket 3.6 17:17:09 10° S 17:21:25 58° E 17:25:41 10° NNE
FALCON 9 DEB 3.9 17:18:36 10° SSW 17:21:28 31° SE 17:24:22 10° ENE
Cosmos 1515 Rocket 3.7 17:17:48 10° N 17:22:13 82° W 17:26:38 10° S
Cosmos 1980 Rocket 2.7 17:17:29 10° S 17:22:40 39° ESE 17:27:54 10° NE
SL-4 R/B 1.6 17:20:12 10° WSW 17:23:50 84° SSE 17:27:18 10° ENE
FALCON 9 DEB 3.3 17:26:54 10° SW 17:29:56 45° SE 17:32:59 10° ENE
Lacrosse 5 rocket 1.5 17:25:34 10° NW 17:30:01 69° NE 17:34:14 10° ESE
Sich 1 3.8 17:27:08 10° SSE 17:30:54 29° E 17:34:43 10° NNE
CSL-04 DEB 4.3 17:26:59 10° NNE 17:30:56 88° ESE 17:34:53 10° SSW
Cosmos 1452 Rocket 3.6 17:27:30 10° SSW 17:32:45 90° ESE 17:38:02 10° NNE
Cosmos 44 3.6 17:29:08 10° NNW 17:34:35 69° NE 17:39:57 10° SE
Cosmos 2082 3.7 17:29:49 10° NNW 17:35:28 86° ENE 17:41:06 10° SSE
CZ-4B R/B 1.5 17:34:58 10° N 17:38:00 68° WNW 17:41:00 10° SSW
SJ-11-01 4.4 17:34:12 10° SSE 17:38:45 55° ENE 17:43:20 10° N
Cosmos 724 4.5 17:33:28 10° SSW 17:39:22 58° ESE 17:45:25 10° NE
Cosmos 1867 3.9 17:35:16 10° S 17:40:23 44° ESE 17:45:34 10° NE
Cosmos 1707 Rocket 4.3 17:38:23 10° N 17:42:19 30° ENE 17:46:11 10° SE
Cosmos 1741 Rocket 4.1 17:38:28 10° NNW 17:43:50 90° NNE 17:49:09 10° SSE
Cosmos 1697 Rocket 2.9 17:41:12 10° SSW 17:46:51 76° WNW 17:52:33 10° NNE
Cosmos 1633 Rocket 4.2 17:43:32 10° SE 17:46:59 23° E 17:50:26 10° NE
Cosmos 1437 3.6 17:44:46 10° NNE 17:47:13 24° ENE 17:49:16 12° SE
Cosmos 2360 4.3 17:42:07 10° SSW 17:47:49 89° WNW 17:53:34 10° NNE
RESURS DK-1 4.2 17:45:38 10° NW 17:49:23 34° WSW 17:53:06 10° S
USA 234 3.3 17:43:15 10° NE 17:49:47 70° SE 17:56:19 10° SW
Cosmos 1110 Rocket 4.1 17:44:43 10° S 17:49:56 61° ESE 17:55:12 10° NNE
ERS-2 2.2 17:46:29 10° NNE 17:50:05 53° ESE 17:53:39 10° S
MOS 1 Rocket 4.3 17:46:34 10° N 17:51:16 54° WNW 17:56:15 10° SSW
SL-16 R/B 3.4 17:47:55 10° SE 17:51:47 19° E 17:55:08 12° ENE
IRS-1C Rocket 4.3 17:46:46 10° S 17:52:01 77° WSW 17:57:19 10° NNW
Cosmos 2369 3.9 17:53:03 10° SSW 17:58:42 77° WNW 18:04:25 10° NNE
PSLV R/B 3.8 17:54:50 10° NNE 17:58:59 81° ESE 18:03:03 10° SSW
SAR-Lupe-4 3.5 17:55:44 10° NNE 17:59:17 63° ESE 18:02:49 10° S
NOSS 2-1 (E) 4.3 17:54:35 10° NNW 17:59:37 64° NE 18:06:43 10° SE
USA 305 2.9 17:55:37 10° SW 17:59:52 73° SE 18:03:07 17° ENE
Ariane Rocket 4.1 18:03:12 19° E 18:05:09 24° ENE 18:09:10 10° N
SeaSat 1 2.5 18:00:52 10° NNE 18:05:49 83° WNW 18:10:45 10° SSW
CZ-4 R/B 1.9 18:02:09 10° S 18:05:56 58° W 18:09:46 10° NNW
USA 307 2.8 18:03:24 10° SW 18:07:41 79° SE 18:10:33 20° ENE
Cosmos 2263 Rocket 2.3 18:03:54 10° NNW 18:09:22 53° ENE 18:14:09 13° SE
Cosmos 2074 Rocket 4.0 18:06:03 10° S 18:12:12 61° E 18:18:22 10° NNE
FALCON 9 DEB 2.9 18:10:50 10° WSW 18:14:02 82° NNW 18:15:24 31° NE
USA 306 2.8 18:09:46 10° SW 18:14:03 89° SE 18:16:44 22° NE
SAR-Lupe-1 4.2 18:13:41 10° N 18:17:18 75° WNW 18:20:52 10° SSW
USA 308 2.8 18:13:39 10° SW 18:17:57 89° NW 18:20:26 24° NE
Cosmos 1805 Rocket 4.0 18:15:44 10° SSW 18:20:02 63° W 18:24:25 10° N
Cosmos 1515 4.3 18:18:50 10° N 18:22:18 34° ENE 18:22:18 34° ENE
ERBS 4.3 18:19:57 10° S 18:21:01 15° SSE 18:21:01 15° SSE
Cosmos 2184 Rocket 3.9 18:18:42 10° S 18:24:49 73° E 18:30:59 10° NNE
H-2A R/B 3.1 18:20:24 10° S 18:25:38 51° W 18:30:58 10° NNW
Meteor 1-27 Rocket 4.3 18:20:44 10° NNW 18:26:09 59° W 18:31:34 10° S
ARGOS 3.4 18:21:00 10° S 18:26:23 72° WSW 18:31:50 10° NNW
Meteor 2-4 Rocket 4.5 18:23:47 10° N 18:28:51 31° ENE 18:29:44 29° E
SJ-6B 3.3 18:28:38 38° E 18:29:01 39° ENE 18:32:51 10° N
OBJECT-B 3.1 18:32:13 14° NNE 18:32:13 14° NNE 18:32:47 10° N
Cosmos 2278 4.0 18:25:28 10° SW 18:31:07 68° WNW 18:36:49 10° NNE
SL-08 RB Rocket 3.7 18:26:46 10° SSE 18:31:15 83° WSW 18:35:47 10° NNW
Cosmos 1271 Rocket 2.5 18:28:12 10° N 18:31:58 88° E 18:35:17 13° S
FALCON 9 DEB 3.5 18:29:41 10° WSW 18:32:48 52° NNW 18:33:29 42° NNE
COSMOS 2455 3.1 18:26:54 10° NW 18:32:54 70° WSW 18:38:51 10° SSE
Meteor 1-25 Rocket 4.2 18:27:42 10° S 18:33:29 72° E 18:39:13 10° NNE
Meteor 1-18 Rocket 4.4 18:28:07 10° N 18:33:55 53° ENE 18:38:04 19° SE
GP-B 3.4 18:33:07 38° ESE 18:33:56 43° E 18:38:09 10° NNE
Cosmos 1461 3.5 18:32:23 10° S 18:36:51 44° ESE 18:37:22 42° E
MetOp-A 4.1 18:32:13 12° SSE 18:37:04 64° ENE 18:42:22 10° N
Cosmos 1602 3.6 18:33:57 10° S 18:37:46 63° E 18:41:38 10° NNE
CZ-2C R/B 2.7 18:32:44 10° NNE 18:38:20 85° WNW 18:43:46 10° SSW
Cosmos 1689 Rocket 4.2 18:35:59 10° N 18:38:28 27° WNW 18:40:58 10° SW
Okean 1 3.3 18:34:45 10° N 18:38:41 53° ENE 18:38:49 53° E
Cosmos 44 Rocket 4.3 18:35:57 10° NNW 18:40:40 32° NE 18:41:15 32° NE
Cosmos 1666 Rocket 3.6 18:37:34 10° SSW 18:41:55 80° W 18:46:17 10° N
ATLAS 5 CENTAUR R/B 4.4 18:29:13 10° WSW 18:42:45 42° NW 18:46:35 12° NNE
Cosmos 1862 Rocket 3.5 18:39:12 10° N 18:43:41 70° E 18:45:35 34° SSE
Meteor 2-12 Rocket 4.4 18:39:44 10° S 18:45:37 57° E 18:51:33 10° NNE
BREEZE-M DEB (TANK) 2.7 18:43:43 10° WNW 18:46:01 42° N 18:46:17 41° NNE
CSL-04 Rocket 4.3 18:41:35 10° S 18:47:02 59° WSW 18:52:32 10° NNW
Cosmos 1844 Rocket 3.8 18:42:37 10° N 18:47:04 26° NE 18:47:04 26° NE
Gbstr 26 Del rocket 3.3 18:43:02 10° WSW 18:47:32 82° NNW 18:49:30 39° NE
Cosmos 2341 Rocket 4.4 18:46:43 36° ESE 18:47:58 40° E 18:53:45 10° NNE
Cosmos 1486 Rocket 4.1 18:44:16 10° NNW 18:49:27 56° ENE 18:50:25 49° ESE
FALCON 9 DEB 4.2 18:54:18 10° W 18:56:59 38° NW 18:56:59 38° NW
SL-4 R/B 3.1 19:00:28 10° WNW 19:03:19 31° NNW 19:03:19 31° NNW
Cosmos 1980 Rocket 3.6 19:01:29 10° WSW 19:06:41 36° NW 19:11:56 10° NNE
Lacrosse 5 rocket 3.8 19:05:37 10° WNW 19:08:44 19° WSW 19:11:00 13° SSW
Cosmos 2322 Rocket 2.2 19:10:13 10° SSW 19:15:03 62° SSE 19:15:03 62° SSE
Cosmos 968 Rocket 3.6 19:13:03 10° NNW 19:18:19 76° WSW 19:19:11 61° S
Cosmos 1503 Rocket 4.5 19:19:47 10° NNW 19:23:43 48° N 19:23:43 48° N
USA 234 4.0 19:29:23 27° NNE 19:32:38 48° NNW 19:38:51 10° W
SL-16 R/B 2.4 19:29:38 10° SW 19:35:17 68° WNW 19:37:13 41° N
Resurs 01 Rocket 3.8 19:44:38 18° N 19:44:38 18° N 19:45:49 10° N
Ariane Rocket 3.7 19:43:24 48° WSW 19:43:47 50° W 19:48:46 10° NNW
Cosmos 2263 Rocket 4.1 19:48:29 10° NW 19:52:54 25° WSW 19:55:56 16° SW
Cosmos 2278 Rocket 4.5 20:25:17 10° N 20:26:30 16° N 20:26:30 16° N
Cosmos 1844 Rocket 4.4 20:26:04 10° NNW 20:28:45 28° NW 20:28:45 28° NW
